Location: Darlington Observatory
(36.4817°N, 105.8156°W)
Time: 18:15:54
(UTC-06:00)

Daily predictions for brighter satellites

Satellite Brightness Start Highest point End
(mag) Time Altitude Azimuth Time Altitude Azimuth Time Altitude Azimuth
Cosmos 1782 3.6 20:37:39 10° NNE 20:41:21 33° E 20:45:02 10° SE
Cosmos 1356 Rocket 3.5 20:37:52 10° S 20:42:06 88° W 20:46:25 10° N
USA 186 1.7 20:39:08 10° SSE 20:42:12 68° ENE 20:45:28 10° N
Cosmos 1452 Rocket 4.0 20:38:07 10° SSE 20:42:55 38° E 20:47:45 10° NE
Cosmos 2074 Rocket 4.0 20:37:57 10° S 20:44:13 75° E 20:50:28 10° N
Cosmos 1674 Rocket 4.1 20:40:41 10° N 20:44:53 40° E 20:49:02 10° SSE
Cosmos 1190 Rocket 4.2 20:43:34 10° N 20:48:41 57° ENE 20:53:47 10° SSE
ATLAS 5 CENTAUR R/B 2.6 20:45:14 10° NW 20:51:22 80° WSW 20:57:51 10° SSE
OAO 3 Rocket 4.1 20:49:00 10° SW 20:53:21 31° SSE 20:57:42 10° E
Resurs 01 Rocket 4.0 20:50:24 10° SSW 20:53:54 23° W 20:57:26 10° NW
ISS -3.3 20:51:16 10° SW 20:54:31 85° NW 20:57:46 10° NE
Cosmos 1184 Rocket 4.5 20:52:57 10° SE 20:55:04 17° E 20:57:18 10° NE
Atlas Centaur 2 2.2 20:52:01 10° WSW 20:55:14 28° S 20:57:58 12° SE
Cosmos 1939 Rocket 3.8 20:52:49 10° SE 20:56:11 29° ENE 20:59:35 10° NNE
SL-08 ROCKET BODY 4.4 20:51:23 10° S 20:57:25 83° E 21:03:22 10° N
Cosmos 1408 3.7 20:55:29 10° SE 20:58:30 24° E 21:01:30 10° NE
Sich 1 Rocket 3.8 20:55:13 10° S 20:59:41 56° E 21:04:11 10° NNE
Nadezhda 3 Rocket 4.5 20:57:56 10° N 21:03:57 43° ENE 21:09:52 10° SSE
CENTAUR R/B 3.6 20:56:17 10° NW 21:04:08 61° WSW 21:12:17 10° SSE
Meteor 2-6 Rocket 4.3 20:58:35 10° N 21:04:30 68° E 21:10:15 10° SSE
Cosmos 1238 Rocket 4.0 21:02:30 10° NNE 21:05:19 23° E 21:07:26 15° ESE
Coronas F rocket 3.7 21:04:24 10° SW 21:06:41 26° W 21:08:59 10° NNW
SPOT 5 4.1 21:04:32 13° SE 21:08:28 30° ENE 21:13:06 10° N
Cosmos 1825 2.8 21:06:01 10° SSE 21:09:30 36° E 21:13:01 10° NNE
TIMED 4.4 21:06:32 10° SSW 21:10:53 82° ESE 21:15:16 10° NNE
Cosmos 2084 3.3 21:09:39 10° SW 21:13:32 77° WNW 21:17:22 10° NNE
COSMOS 2406 3.8 21:08:08 10° NNW 21:13:46 59° WSW 21:19:20 10° S
Cosmos 1975 Rocket 4.2 21:12:14 10° NNE 21:15:55 26° ENE 21:18:01 18° ESE
Cosmos 2278 Rocket 2.2 21:10:28 10° S 21:16:03 64° ESE 21:21:40 10° NNE
Cosmos 1844 Rocket 3.4 21:10:47 10° SW 21:16:21 59° WNW 21:21:56 10° NNE
Cosmos 676 Rocket 4.0 21:14:24 10° NNW 21:19:35 65° ENE 21:23:43 16° SSE
Cosmos 1174 3.3 21:17:11 10° NNW 21:20:17 55° ENE 21:21:43 26° SE
Cosmos 1844 4.0 21:15:53 10° SSW 21:21:37 74° WNW 21:27:26 10° NNE
Cosmos 1908 Rocket 3.5 21:18:47 10° S 21:23:10 81° E 21:27:36 10° N
COS B Rocket 3.4 21:19:30 10° NNE 21:23:19 48° E 21:25:27 20° SSE
Cosmos 1954 Rocket 4.2 21:18:24 10° N 21:23:31 53° ENE 21:27:03 19° SE
Abrixas 4.3 21:21:21 10° S 21:22:32 17° S 21:22:32 17° S
Cosmos 1378 Rocket 3.6 21:22:21 10° N 21:26:37 56° E 21:29:29 20° SSE
Cosmos 2341 Rocket 4.0 21:22:15 10° S 21:28:28 63° E 21:34:38 10° NNE
CZ-4 DEB 4.2 21:29:46 10° SSW 21:32:41 34° W 21:35:38 10° NNW
SL-27 R/B 4.1 21:29:33 10° NW 21:32:50 32° W 21:36:02 10° SSW
BREEZE-M DEB (TANK) 4.4 21:21:30 10° WNW 21:35:08 48° NNE 21:38:18 17° E
deb Chang Zheng 4 3.6 21:32:45 10° NNE 21:37:12 87° W 21:41:38 10° SSW
Cosmos 2082 Rocket 3.5 21:33:36 10° N 21:38:19 26° ENE 21:40:49 19° E
SL-8 Rocket 4.4 21:34:24 18° SSE 21:38:41 43° E 21:44:31 10° NNE
GPS 2-05 Rocket1 2.8 21:35:13 10° W 21:38:56 77° S 21:40:33 31° E
Cosmos 962 Rocket 4.4 21:33:27 10° S 21:39:35 77° E 21:45:49 10° N
USA 245 4.3 21:42:27 24° E 21:42:54 25° ENE 21:46:11 10° NNE
Nimbus 7 Rocket 4.4 21:37:24 10° NNE 21:43:22 85° ESE 21:49:22 10° SSW
Timation 2 Rocket 4.2 21:40:27 10° NNW 21:46:16 51° ENE 21:49:12 28° SE
Intercosmos 25 3.2 21:47:33 40° SE 21:48:20 49° E 21:51:26 10° NNE
Cosmos 1862 4.1 21:46:20 10° SSW 21:50:18 52° W 21:54:18 10° N
H-2A R/B 2.2 21:49:42 22° S 21:52:23 69° WSW 21:56:37 10° NNW
Cosmos 2297 3.7 21:46:48 10° S 21:52:24 64° ESE 21:58:05 10° NNE
Envisat 3.2 21:49:15 18° S 21:53:02 70° WSW 21:58:07 10° NNW
Cosmos 2154 Rocket 4.4 21:47:12 10° SSW 21:53:20 63° W 21:59:30 10° N
Cosmos 2151 Rocket 4.3 21:53:44 33° ESE 21:54:14 34° E 21:58:19 10° NNE
COSMOS 2487 2.5 21:52:53 10° NNW 21:56:30 75° WSW 21:57:31 44° S
SEDSat Delta rocket 3.7 21:53:25 10° SW 21:56:53 32° S 21:56:53 32° S
Cosmos 1295 Rocket 4.4 21:51:39 13° S 21:57:17 77° E 22:03:33 10° N
Cosmos 1606 3.9 21:53:35 10° NNW 21:57:18 41° W 22:00:04 16° SSW
APEX 3.5 21:58:14 10° SSW 22:01:55 77° WNW 22:06:48 10° NNE
CZ-4 R/B 4.2 21:58:05 10° NNE 22:02:27 39° E 22:02:42 38° ESE
OAO 1 Rocket 4.4 21:57:33 10° WSW 22:02:49 67° S 22:05:03 34° E
CZ-4 SHROUD 3.1 22:05:12 84° NNE 22:05:12 84° NNE 22:08:13 10° N
Cosmos 614 Rocket 4.1 22:00:19 10° N 22:05:18 55° ENE 22:06:40 41° ESE
Cosmos 1420 Rocket 4.3 22:00:09 10° SSW 22:05:23 69° WNW 22:10:36 10° NNE
PSLV R/B 3.1 22:05:42 75° NW 22:05:42 75° NW 22:08:29 10° NNW
Cosmos 489 Rocket 4.4 22:00:57 10° NNW 22:07:10 86° WSW 22:10:19 31° SSE
H-2A R/B 4.4 22:02:03 10° WSW 22:07:21 50° S 22:47:47 10° ESE
H-2A R/B 4.4 22:02:04 10° WSW 22:07:21 50° S 22:47:47 10° ESE
H-2A R/B 4.4 22:02:03 10° WSW 22:07:22 50° S 22:47:47 10° ESE
H-2A R/B 4.4 22:02:04 10° WSW 22:07:22 50° S 22:47:47 10° ESE
ERS-1 Rocket 4.5 22:03:06 10° SSW 22:07:35 32° W 22:12:06 10° NW
MetOp-B 4.1 22:06:48 33° SSE 22:09:21 88° WSW 22:14:44 10° NNW
Okean 3 4.3 22:11:44 10° NNW 22:15:50 46° W 22:17:45 27° SSW
Cosmos 1140 Rocket 3.6 22:12:40 10° NNW 22:17:48 71° WSW 22:19:38 40° S
Cosmos 2366 rocket 3.9 22:16:58 35° SSE 22:19:40 68° E 22:25:58 10° NNE
Landsat 7 4.4 22:19:26 38° E 22:19:45 39° ENE 22:24:10 10° N
H-2A R/B 2.8 22:22:52 37° E 22:23:34 38° ENE 22:28:27 10° N
Okean 2 Rocket 4.3 22:22:30 14° SW 22:25:53 39° W 22:30:02 10° N
SL-08 RB Rocket 3.6 22:27:36 66° ESE 22:27:59 70° ENE 22:32:36 10° N
CZ-4B R/B 3.4 22:23:24 10° N 22:28:19 79° WNW 22:30:09 38° SSW
ARGOS 3.0 22:28:02 52° SSE 22:29:23 86° ENE 22:34:46 10° NNW
USA 234 3.4 22:23:32 10° ENE 22:29:45 45° SE 22:30:12 44° SE
YAOGAN 6 3.4 22:30:30 43° WSW 22:30:33 43° W 22:33:56 10° NNW
ISS 0.0 22:29:44 10° NW 22:31:22 13° NNW 22:33:01 10° N
Timation 1 Rocket 4.2 22:29:58 43° S 22:31:53 68° ESE 22:37:50 10° NNE
Cosmos 1242 Rocket 3.6 22:28:27 10° NNW 22:31:56 40° W 22:32:16 39° WSW
CZ-3 Stage 3 4.5 14:18:55 10° SSW 22:32:37 69° SSW 22:37:01 36° ESE
Terra 2.5 22:35:40 38° ENE 22:35:40 38° ENE 22:39:53 10° N
OAO 3 Rocket 3.3 22:31:40 10° WSW 22:36:05 61° SSW 22:36:05 61° SSW
SPOT 1/Viking Rocket 3.7 22:37:46 49° SSW 22:39:04 67° WSW 22:44:15 10° NNW
Meteor 1-20 Rocket 4.0 22:43:06 66° SE 22:43:41 73° E 22:49:13 10° NNE
Cosmos 2218 Rocket 4.4 22:45:05 25° SSW 22:48:50 60° W 22:55:10 10° N
CARTOSAT-1 4.2 22:52:52 48° NNE 22:52:52 48° NNE 22:56:15 10° N
DELTA 2 DEB (DPAF) 4.3 22:56:30 69° NNW 22:56:30 69° NNW 23:00:27 10° NNW
Cosmos 1833 Rocket 2.5 22:53:14 10° NNW 22:58:52 85° WSW 22:59:10 80° S
Meteor 1-25 Rocket 4.4 22:57:31 48° SW 22:59:04 70° W 23:04:54 10° N
Lacrosse 5 3.3 23:04:10 27° NE 23:04:10 27° NE 23:06:31 10° NE
Meteor 2-19 Rocket 4.5 23:00:40 52° SSW 23:02:12 74° W 23:08:19 10° N
Cosmos 1727 Rocket 4.1 22:59:51 10° NNW 23:05:59 68° W 23:07:08 56° SW
Cosmos 1536 Rocket 4.3 23:02:22 10° NNW 23:06:20 50° WNW 23:06:20 50° WNW
Cosmos 1812 4.4 23:12:15 10° NNW 23:14:33 33° NNW 23:14:33 33° NNW
ASTEX 1 3.8 23:13:46 10° N 23:17:44 58° NNE 23:17:44 58° NNE
USA 229 DEB 3.8 23:13:05 10° NW 23:20:09 67° WSW 23:20:58 62° SSW
USA 229 3.8 23:13:11 10° NW 23:20:15 68° WSW 23:21:04 63° SSW
Cosmos 2082 Rocket 3.0 23:17:13 10° NW 23:22:29 40° WSW 23:22:40 40° WSW
Lacrosse 5 rocket 4.1 23:38:52 11° NNE 23:38:52 11° NNE 23:39:08 10° NNE
Cosmos 1821 Rocket 4.0 23:36:41 76° NE 23:36:41 76° NE 23:42:28 10° N
Meteor 1-13 Rocket 4.4 23:31:59 10° N 23:37:28 74° NW 23:37:28 74° NW
NOSS 3-1 (A) 4.4 23:31:07 10° NNW 23:38:36 55° NE 23:40:02 49° E
Cosmos 2285 Rocket 4.2 23:47:10 65° NE 23:47:10 65° NE 23:52:36 10° NNE
Cosmos 1934 Rocket 4.1 23:47:59 66° NNE 23:47:59 66° NNE 23:53:09 10° N
Meteor 1-11 Rocket 4.1 23:49:23 63° NW 23:49:23 63° NW 23:54:38 10° N
BREEZE-M TANK 4.3 23:51:35 10° WNW 23:56:11 32° NNW 23:56:11 32° NNW
